Tracking 18032 objects as of 27-March-2017
HD Live streaming from Space Station
objects crossing your sky now

ECHOSTAR 23

Track ECHOSTAR 23 now!


NORAD ID: 42070
Int'l Code: 2017-014A
Perigee: 35,532.7 km
Apogee: 35,799.2 km
Inclination: 0.2 °
Period: 1,429.6 minutes
Semi major axis: 42036 km
RCS: Unknown
Launch date: March 16, 2017
Source: United States (US)
Launch site: AIR FORCE EASTERN TEST RANGE (AFETR)
Your satellite tracking list
Your tracking list is empty





NASA's NSSDC Master Catalog

Two Line Element Set (TLE):
1 42070U 17014A   17082.61110422 -.00000239 +00000-0 +00000-0 0  9996
2 42070 000.2167 204.1978 0031701 352.5475 161.0494 01.00729399000134
Source of the keplerian elements: AFSPC